QPF
0.00 0.00 0.00 0.00 0.00 0.00 0.00 0.00 0.00 0.00 0.00 0.00 0.01 0.01 0.01 0.01 0.01 0.01 0.01 0.01 0.02 0.03 0.04 0.06 0.10 0.12 0.12 0.15 0.19 0.17 0.14 0.14 0.14 0.11 0.10 0.09 0.06 0.06 0.06 0.06 0.05 0.05 0.07 0.04
0.00 0.00 0.00 0.00 0.00 0.00 0.00 0.00 0.00 0.01 0.00 0.00 0.01 0.01 0.01 0.02 0.01 0.01 0.01 0.01 0.02 0.03 0.04 0.05 0.07 0.07 0.07 0.06 0.11 0.18 0.19 0.18 0.16 0.12 0.10 0.09 0.07 0.06 0.06 0.06 0.04 0.05 0.08 0.08
0.00 0.00 0.00 0.00 0.00 0.00 0.00 0.00 0.00 0.01 0.01 0.01 0.01 0.02 0.02 0.02 0.02 0.02 0.02 0.03 0.04 0.04 0.04 0.04 0.05 0.07 0.06 0.04 0.06 0.10 0.16 0.17 0.17 0.14 0.12 0.09 0.10 0.10 0.09 0.08 0.05 0.05 0.07 0.08
0.00 0.00 0.00 0.00 0.00 0.00 0.00 0.00 0.00 0.00 0.01 0.01 0.02 0.02 0.02 0.03 0.03 0.04 0.08 0.08 0.08 0.06 0.05 0.04 0.05 0.06 0.05 0.05 0.06 0.09 0.13 0.12 0.14 0.13 0.11 0.09 0.09 0.09 0.06 0.06 0.06 0.05 0.07 0.07
0.00 0.00 0.00 0.00 0.00 0.00 0.00 0.00 0.00 0.00 0.01 0.02 0.03 0.02 0.02 0.02 0.03 0.04 0.05 0.07 0.07 0.07 0.07 0.06 0.07 0.06 0.06 0.05 0.05 0.07 0.12 0.10 0.10 0.10 0.10 0.09 0.10 0.10 0.06 0.07 0.08 0.07 0.06 0.05
0.00 0.00 0.00 0.00 0.00 0.00 0.00 0.00 0.00 0.00 0.00 0.01 0.02 0.02 0.02 0.02 0.02 0.03 0.04 0.04 0.05 0.06 0.07 0.07 0.09 0.07 0.06 0.05 0.05 0.07 0.12 0.11 0.09 0.09 0.09 0.10 0.11 0.10 0.07 0.06 0.07 0.07 0.07 0.06
0.00 0.00 0.00 0.00 0.00 0.00 0.00 0.00 0.01 0.01 0.01 0.01 0.01 0.01 0.01 0.02 0.03 0.03 0.03 0.04 0.05 0.05 0.07 0.08 0.09 0.06 0.04 0.03 0.04 0.08 0.11 0.14 0.11 0.09 0.07 0.08 0.08 0.08 0.06 0.06 0.06 0.06 0.07 0.06
0.00 0.00 0.00 0.00 0.00 0.00 0.00 0.01 0.01 0.02 0.00 0.01 0.01 0.01 0.02 0.03 0.03 0.03 0.03 0.03 0.03 0.05 0.06 0.07 0.07 0.07 0.03 0.02 0.04 0.11 0.08 0.10 0.15 0.12 0.08 0.08 0.06 0.05 0.05 0.04 0.05 0.06 0.04 0.03
0.00 0.00 0.00 0.00 0.00 0.00 0.00 0.00 0.02 0.03 0.01 0.01 0.01 0.01 0.01 0.03 0.02 0.02 0.02 0.02 0.02 0.04 0.05 0.06 0.05 0.05 0.03 0.01 0.02 0.06 0.06 0.09 0.15 0.14 0.09 0.08 0.05 0.05 0.05 0.04 0.04 0.04 0.03 0.03
0.00 0.00 0.00 0.00 0.01 0.00 0.00 0.00 0.01 0.03 0.02 0.01 0.01 0.01 0.03 0.02 0.01 0.02 0.02 0.02 0.02 0.02 0.03 0.04 0.03 0.03 0.01 0.01 0.01 0.03 0.05 0.11 0.13 0.12 0.08 0.07 0.06 0.05 0.04 0.04 0.03 0.02 0.03 0.03
0.00 0.00 0.00 0.01 0.00 0.01 0.01 0.01 0.01 0.01 0.01 0.01 0.01 0.01 0.01 0.01 0.01 0.00 0.01 0.01 0.01 0.01 0.02 0.02 0.01 0.01 0.01 0.01 0.01 0.03 0.06 0.12 0.10 0.08 0.07 0.06 0.06 0.05 0.04 0.04 0.03 0.02 0.03 0.02
0.00 0.00 0.00 0.00 0.00 0.00 0.00 0.01 0.01 0.01 0.01 0.00 0.00 0.01 0.01 0.01 0.01 0.01 0.01 0.01 0.00 0.01 0.01 0.01 0.01 0.01 0.01 0.02 0.03 0.04 0.07 0.11 0.09 0.07 0.07 0.07 0.06 0.05 0.04 0.03 0.03 0.02 0.02 0.02
0.00 0.00 0.00 0.00 0.00 0.00 0.00 0.00 0.01 0.01 0.01 0.00 0.01 0.01 0.01 0.01 0.01 0.01 0.01 0.00 0.00 0.01 0.01 0.00 0.01 0.01 0.02 0.03 0.03 0.05 0.05 0.08 0.08 0.07 0.06 0.05 0.04 0.04 0.03 0.03 0.04 0.03 0.02 0.02
0.01 0.00 0.00 0.00 0.00 0.00 0.00 0.01 0.02 0.02 0.01 0.01 0.01 0.02 0.02 0.02 0.02 0.03 0.02 0.01 0.01 0.01 0.01 0.01 0.01 0.01 0.02 0.03 0.04 0.05 0.05 0.05 0.04 0.05 0.04 0.03 0.03 0.03 0.03 0.03 0.03 0.04 0.04 0.02
0.01 0.01 0.01 0.01 0.01 0.01 0.01 0.01 0.01 0.02 0.01 0.01 0.01 0.03 0.04 0.03 0.03 0.03 0.02 0.01 0.02 0.01 0.01 0.01 0.01 0.01 0.02 0.03 0.03 0.02 0.03 0.04 0.04 0.04 0.03 0.02 0.03 0.02 0.03 0.03 0.04 0.04 0.04 0.03
0.01 0.01 0.01 0.02 0.01 0.00 0.01 0.01 0.01 0.01 0.01 0.01 0.02 0.04 0.03 0.03 0.04 0.03 0.02 0.03 0.02 0.01 0.01 0.02 0.02 0.02 0.03 0.02 0.02 0.02 0.02 0.02 0.03 0.03 0.02 0.02 0.02 0.02 0.02 0.02 0.03 0.04 0.04 0.05
0.01 0.01 0.02 0.01 0.01 0.00 0.01 0.01 0.01 0.00 0.01 0.01 0.02 0.03 0.04 0.04 0.04 0.04 0.03 0.03 0.01 0.01 0.01 0.03 0.02 0.02 0.02 0.01 0.01 0.03 0.04 0.03 0.02 0.01 0.01 0.01 0.02 0.02 0.02 0.02 0.03 0.03 0.03 0.03
0.01 0.01 0.01 0.02 0.01 0.01 0.01 0.01 0.01 0.01 0.01 0.01 0.01 0.02 0.04 0.04 0.03 0.03 0.03 0.02 0.01 0.01 0.02 0.03 0.02 0.02 0.02 0.02 0.03 0.05 0.04 0.03 0.01 0.01 0.01 0.02 0.03 0.02 0.02 0.03 0.02 0.02 0.02 0.02
0.00 0.00 0.01 0.02 0.01 0.02 0.02 0.01 0.01 0.01 0.01 0.01 0.01 0.01 0.01 0.02 0.02 0.02 0.02 0.02 0.02 0.02 0.03 0.03 0.02 0.02 0.03 0.04 0.05 0.03 0.02 0.02 0.01 0.01 0.02 0.03 0.02 0.01 0.01 0.02 0.01 0.01 0.01 0.01
0.00 0.00 0.00 0.00 0.01 0.01 0.01 0.01 0.01 0.01 0.01 0.01 0.01 0.01 0.01 0.02 0.03 0.02 0.02 0.02 0.03 0.04 0.05 0.04 0.03 0.04 0.03 0.04 0.03 0.02 0.01 0.01 0.01 0.01 0.01 0.02 0.01 0.00 0.01 0.01 0.01 0.01 0.01 0.01
0.00 0.01 0.00 0.00 0.00 0.01 0.01 0.01 0.01 0.01 0.02 0.01 0.01 0.02 0.02 0.03 0.04 0.04 0.03 0.04 0.04 0.04 0.04 0.04 0.03 0.03 0.03 0.03 0.01 0.01 0.01 0.01 0.01 0.01 0.01 0.01 0.01 0.01 0.01 0.01 0.01 0.01 0.01 0.01
0.01 0.01 0.01 0.02 0.02 0.02 0.01 0.01 0.01 0.01 0.01 0.01 0.02 0.03 0.02 0.04 0.06 0.06 0.06 0.06 0.05 0.03 0.02 0.02 0.02 0.02 0.02 0.01 0.01 0.00 0.01 0.01 0.01 0.01 0.01 0.01 0.01 0.01 0.01 0.01 0.01 0.01 0.01 0.01
0.02 0.01 0.02 0.02 0.02 0.03 0.03 0.02 0.01 0.01 0.01 0.01 0.02 0.03 0.03 0.04 0.06 0.05 0.05 0.04 0.03 0.03 0.02 0.02 0.02 0.02 0.02 0.01 0.01 0.01 0.01 0.01 0.02 0.01 0.01 0.01 0.01 0.00 0.01 0.01 0.01 0.01 0.01 0.01
0.02 0.03 0.04 0.02 0.02 0.01 0.01 0.01 0.01 0.01 0.01 0.01 0.01 0.01 0.01 0.01 0.02 0.02 0.02 0.02 0.01 0.01 0.02 0.01 0.01 0.02 0.02 0.01 0.02 0.01 0.01 0.01 0.02 0.01 0.01 0.01 0.01 0.01 0.01 0.01 0.01 0.01 0.01 0.01
0.01 0.02 0.03 0.02 0.02 0.01 0.01 0.02 0.01 0.01 0.01 0.01 0.01 0.01 0.01 0.01 0.01 0.01 0.01 0.02 0.01 0.01 0.01 0.01 0.02 0.02 0.02 0.01 0.02 0.01 0.01 0.01 0.01 0.01 0.01 0.01 0.01 0.01 0.01 0.02 0.02 0.01 0.01 0.01
0.01 0.01 0.02 0.02 0.01 0.01 0.02 0.02 0.01 0.01 0.01 0.01 0.01 0.01 0.00 0.00 0.00 0.01 0.02 0.02 0.01 0.01 0.01 0.01 0.01 0.01 0.01 0.01 0.01 0.01 0.01 0.00 0.00 0.00 0.00 0.01 0.01 0.01 0.02 0.03 0.02 0.02 0.02 0.02
MSLP
1011.35 1012.18 1012.93 1013.62 1014.26 1014.88 1015.53 1016.22 1016.96 1017.71 1018.45 1019.10 1019.63 1019.99 1020.17 1020.17 1020.02 1019.76 1019.43 1019.07 1018.72 1018.38 1018.05 1017.72 1017.37 1016.98 1016.56 1016.09 1015.60 1015.11 1014.63 1014.18 1013.79 1013.45 1013.16 1012.92 1012.72 1012.54 1012.39 1012.25 1012.14 1012.06 1012.01 1012.01
1011.86 1012.51 1013.08 1013.62 1014.15 1014.73 1015.39 1016.15 1016.99 1017.85 1018.68 1019.39 1019.94 1020.28 1020.41 1020.33 1020.10 1019.78 1019.41 1019.06 1018.73 1018.43 1018.16 1017.87 1017.56 1017.19 1016.77 1016.30 1015.81 1015.32 1014.87 1014.48 1014.15 1013.89 1013.67 1013.48 1013.29 1013.10 1012.90 1012.70 1012.50 1012.34 1012.22 1012.18
1012.31 1012.75 1013.14 1013.52 1013.95 1014.50 1015.19 1016.02 1016.95 1017.92 1018.82 1019.59 1020.14 1020.44 1020.50 1020.34 1020.04 1019.66 1019.28 1018.93 1018.65 1018.42 1018.21 1017.99 1017.72 1017.39 1016.98 1016.51 1016.02 1015.54 1015.12 1014.77 1014.50 1014.30 1014.15 1014.01 1013.86 1013.68 1013.47 1013.23 1012.99 1012.78 1012.62 1012.54
1012.75 1012.99 1013.20 1013.44 1013.79 1014.32 1015.04 1015.94 1016.96 1018.00 1018.96 1019.75 1020.28 1020.52 1020.50 1020.26 1019.88 1019.45 1019.05 1018.72 1018.49 1018.33 1018.20 1018.06 1017.85 1017.56 1017.17 1016.71 1016.22 1015.75 1015.34 1015.02 1014.79 1014.64 1014.54 1014.46 1014.35 1014.20 1014.00 1013.77 1013.52 1013.30 1013.13 1013.03
1013.23 1013.29 1013.34 1013.48 1013.78 1014.29 1015.05 1016.01 1017.09 1018.18 1019.17 1019.94 1020.42 1020.58 1020.46 1020.11 1019.65 1019.17 1018.74 1018.44 1018.25 1018.17 1018.13 1018.07 1017.94 1017.69 1017.34 1016.90 1016.41 1015.94 1015.52 1015.21 1015.00 1014.88 1014.82 1014.78 1014.71 1014.60 1014.44 1014.23 1014.01 1013.80 1013.64 1013.55
1013.80 1013.71 1013.64 1013.70 1013.96 1014.48 1015.26 1016.26 1017.38 1018.49 1019.46 1020.18 1020.57 1020.64 1020.40 1019.95 1019.40 1018.86 1018.41 1018.12 1017.98 1017.96 1018.00 1018.03 1017.96 1017.78 1017.47 1017.05 1016.57 1016.09 1015.66 1015.34 1015.13 1015.01 1014.96 1014.95 1014.91 1014.84 1014.72 1014.55 1014.37 1014.20 1014.07 1014.00
1014.42 1014.22 1014.08 1014.10 1014.35 1014.87 1015.67 1016.69 1017.80 1018.89 1019.80 1020.44 1020.74 1020.69 1020.34 1019.79 1019.16 1018.56 1018.09 1017.81 1017.70 1017.74 1017.84 1017.94 1017.94 1017.82 1017.55 1017.15 1016.68 1016.20 1015.76 1015.42 1015.18 1015.05 1015.00 1014.98 1014.97 1014.92 1014.84 1014.72 1014.59 1014.46 1014.37 1014.32
1015.05 1014.81 1014.64 1014.64 1014.89 1015.42 1016.21 1017.21 1018.28 1019.30 1020.13 1020.67 1020.86 1020.71 1020.26 1019.63 1018.93 1018.30 1017.82 1017.54 1017.45 1017.52 1017.68 1017.83 1017.88 1017.80 1017.57 1017.20 1016.75 1016.26 1015.82 1015.45 1015.19 1015.04 1014.96 1014.94 1014.92 1014.89 1014.83 1014.75 1014.65 1014.57 1014.51 1014.49
1015.62 1015.39 1015.23 1015.25 1015.50 1016.02 1016.78 1017.72 1018.72 1019.64 1020.36 1020.80 1020.89 1020.65 1020.14 1019.46 1018.74 1018.09 1017.61 1017.34 1017.27 1017.36 1017.54 1017.71 1017.80 1017.75 1017.55 1017.21 1016.77 1016.30 1015.85 1015.47 1015.19 1015.01 1014.91 1014.87 1014.84 1014.81 1014.76 1014.70 1014.63 1014.57 1014.53 1014.52
1016.08 1015.89 1015.78 1015.83 1016.09 1016.59 1017.29 1018.14 1019.03 1019.82 1020.43 1020.75 1020.76 1020.47 1019.94 1019.26 1018.55 1017.93 1017.47 1017.22 1017.16 1017.26 1017.43 1017.61 1017.70 1017.67 1017.49 1017.17 1016.76 1016.30 1015.87 1015.50 1015.21 1015.02 1014.90 1014.84 1014.80 1014.76 1014.71 1014.64 1014.58 1014.52 1014.48 1014.48
1016.37 1016.27 1016.23 1016.32 1016.59 1017.04 1017.66 1018.39 1019.14 1019.79 1020.27 1020.51 1020.46 1020.15 1019.64 1019.01 1018.37 1017.82 1017.41 1017.18 1017.14 1017.23 1017.38 1017.53 1017.61 1017.57 1017.39 1017.10 1016.71 1016.29 1015.89 1015.54 1015.27 1015.08 1014.96 1014.89 1014.84 1014.78 1014.72 1014.65 1014.57 1014.50 1014.45 1014.42
1016.52 1016.53 1016.57 1016.70 1016.96 1017.35 1017.87 1018.46 1019.05 1019.55 1019.91 1020.06 1019.99 1019.70 1019.25 1018.72 1018.18 1017.72 1017.39 1017.21 1017.17 1017.25 1017.37 1017.48 1017.52 1017.46 1017.28 1017.00 1016.64 1016.27 1015.90 1015.59 1015.36 1015.19 1015.09 1015.02 1014.97 1014.91 1014.83 1014.74 1014.64 1014.54 1014.47 1014.41
1016.58 1016.70 1016.83 1016.99 1017.22 1017.54 1017.93 1018.37 1018.79 1019.15 1019.39 1019.47 1019.38 1019.14 1018.78 1018.37 1017.96 1017.61 1017.37 1017.25 1017.23 1017.29 1017.38 1017.44 1017.43 1017.34 1017.15 1016.88 1016.55 1016.22 1015.91 1015.65 1015.46 1015.34 1015.26 1015.21 1015.17 1015.11 1015.03 1014.92 1014.79 1014.66 1014.55 1014.45
1016.63 1016.85 1017.04 1017.22 1017.42 1017.65 1017.91 1018.18 1018.44 1018.64 1018.77 1018.79 1018.70 1018.51 1018.26 1017.97 1017.70 1017.49 1017.34 1017.28 1017.29 1017.33 1017.38 1017.39 1017.34 1017.21 1017.00 1016.74 1016.45 1016.16 1015.90 1015.70 1015.56 1015.47 1015.43 1015.41 1015.38 1015.33 1015.24 1015.12 1014.98 1014.83 1014.67 1014.54
1016.74 1017.03 1017.25 1017.43 1017.58 1017.71 1017.83 1017.95 1018.04 1018.10 1018.12 1018.08 1018.00 1017.86 1017.71 1017.55 1017.41 1017.31 1017.27 1017.27 1017.29 1017.33 1017.34 1017.32 1017.23 1017.07 1016.86 1016.60 1016.34 1016.09 1015.88 1015.72 1015.62 1015.57 1015.56 1015.56 1015.54 1015.50 1015.42 1015.30 1015.15 1014.97 1014.79 1014.63
1016.94 1017.26 1017.49 1017.64 1017.72 1017.75 1017.74 1017.70 1017.65 1017.58 1017.50 1017.41 1017.32 1017.24 1017.16 1017.11 1017.09 1017.09 1017.13 1017.18 1017.23 1017.27 1017.26 1017.21 1017.10 1016.93 1016.71 1016.47 1016.24 1016.02 1015.84 1015.72 1015.65 1015.62 1015.62 1015.63 1015.62 1015.59 1015.52 1015.40 1015.24 1015.06 1014.87 1014.68
1017.23 1017.54 1017.74 1017.83 1017.84 1017.76 1017.62 1017.45 1017.27 1017.09 1016.93 1016.80 1016.71 1016.66 1016.65 1016.68 1016.74 1016.83 1016.92 1017.02 1017.09 1017.13 1017.12 1017.06 1016.95 1016.78 1016.58 1016.37 1016.16 1015.97 1015.82 1015.71 1015.65 1015.62 1015.62 1015.62 1015.61 1015.58 1015.51 1015.39 1015.24 1015.06 1014.87 1014.67
1017.56 1017.81 1017.95 1017.97 1017.87 1017.69 1017.45 1017.17 1016.88 1016.62 1016.40 1016.24 1016.15 1016.13 1016.17 1016.26 1016.38 1016.52 1016.66 1016.79 1016.88 1016.93 1016.93 1016.88 1016.78 1016.64 1016.48 1016.30 1016.13 1015.97 1015.83 1015.73 1015.66 1015.61 1015.58 1015.56 1015.53 1015.48 1015.40 1015.30 1015.15 1014.99 1014.80 1014.60
1017.84 1018.01 1018.05 1017.97 1017.78 1017.50 1017.16 1016.79 1016.44 1016.13 1015.88 1015.72 1015.64 1015.64 1015.72 1015.86 1016.02 1016.20 1016.37 1016.51 1016.62 1016.68 1016.70 1016.67 1016.61 1016.51 1016.40 1016.27 1016.14 1016.01 1015.89 1015.78 1015.69 1015.61 1015.54 1015.48 1015.42 1015.35 1015.26 1015.15 1015.02 1014.87 1014.69 1014.51
1018.00 1018.05 1017.98 1017.79 1017.50 1017.13 1016.71 1016.29 1015.90 1015.57 1015.33 1015.18 1015.14 1015.18 1015.30 1015.47 1015.67 1015.87 1016.05 1016.21 1016.32 1016.40 1016.44 1016.45 1016.43 1016.39 1016.33 1016.26 1016.18 1016.09 1015.99 1015.88 1015.77 1015.66 1015.55 1015.44 1015.34 1015.24 1015.13 1015.02 1014.90 1014.76 1014.60 1014.43
1017.98 1017.91 1017.72 1017.42 1017.02 1016.57 1016.09 1015.64 1015.24 1014.92 1014.71 1014.61 1014.62 1014.73 1014.90 1015.11 1015.34 1015.55 1015.74 1015.90 1016.02 1016.11 1016.17 1016.21 1016.23 1016.25 1016.26 1016.26 1016.23 1016.19 1016.12 1016.02 1015.90 1015.76 1015.62 1015.47 1015.33 1015.20 1015.07 1014.95 1014.83 1014.70 1014.56 1014.40
1017.78 1017.59 1017.28 1016.86 1016.38 1015.85 1015.33 1014.85 1014.46 1014.18 1014.03 1014.00 1014.08 1014.26 1014.49 1014.75 1015.01 1015.25 1015.45 1015.60 1015.72 1015.81 1015.89 1015.95 1016.02 1016.09 1016.16 1016.22 1016.26 1016.26 1016.23 1016.16 1016.04 1015.90 1015.73 1015.56 1015.39 1015.22 1015.08 1014.95 1014.82 1014.70 1014.56 1014.41
1017.45 1017.15 1016.73 1016.21 1015.63 1015.04 1014.48 1013.99 1013.62 1013.39 1013.30 1013.34 1013.51 1013.77 1014.07 1014.39 1014.70 1014.96 1015.17 1015.33 1015.44 1015.53 1015.60 1015.68 1015.78 1015.88 1016.00 1016.11 1016.20 1016.27 1016.28 1016.24 1016.15 1016.02 1015.85 1015.66 1015.48 1015.30 1015.14 1014.99 1014.86 1014.73 1014.59 1014.44
1017.08 1016.70 1016.18 1015.56 1014.90 1014.24 1013.64 1013.14 1012.78 1012.58 1012.55 1012.68 1012.93 1013.26 1013.64 1014.03 1014.38 1014.67 1014.90 1015.06 1015.17 1015.25 1015.32 1015.39 1015.49 1015.62 1015.76 1015.91 1016.04 1016.15 1016.22 1016.22 1016.17 1016.06 1015.91 1015.74 1015.55 1015.37 1015.19 1015.04 1014.89 1014.74 1014.60 1014.43
1016.77 1016.32 1015.72 1015.03 1014.29 1013.57 1012.91 1012.38 1012.02 1011.84 1011.85 1012.02 1012.34 1012.74 1013.19 1013.64 1014.04 1014.37 1014.62 1014.80 1014.90 1014.97 1015.02 1015.08 1015.17 1015.29 1015.43 1015.60 1015.76 1015.91 1016.01 1016.06 1016.05 1015.98 1015.87 1015.72 1015.54 1015.36 1015.19 1015.02 1014.85 1014.69 1014.52 1014.33
1016.62 1016.12 1015.47 1014.71 1013.90 1013.11 1012.39 1011.81 1011.41 1011.22 1011.23 1011.43 1011.78 1012.22 1012.72 1013.22 1013.67 1014.04 1014.32 1014.50 1014.61 1014.67 1014.71 1014.74 1014.80 1014.90 1015.03 1015.19 1015.36 1015.52 1015.65 1015.74 1015.77 1015.75 1015.67 1015.55 1015.40 1015.24 1015.06 1014.88 1014.69 1014.51 1014.31 1014.10
Thickness
5735 5721 5712 5717 5719 5720 5715 5708 5702 5706 5715 5708 5702 5700 5703 5708 5708 5706 5706 5707 5708 5708 5711 5713 5714 5714 5712 5711 5710 5710 5708 5706 5704 5702 5700 5698 5698 5698 5697 5696 5696 5695 5694 5693
5720 5714 5724 5727 5724 5718 5711 5703 5699 5702 5709 5703 5694 5693 5699 5703 5703 5702 5701 5701 5702 5702 5704 5707 5708 5709 5708 5706 5705 5704 5703 5701 5700 5698 5696 5695 5695 5694 5694 5693 5692 5692 5691 5690
5717 5722 5730 5724 5717 5712 5707 5701 5699 5696 5698 5698 5692 5686 5690 5696 5700 5700 5699 5699 5699 5699 5698 5700 5701 5702 5702 5701 5700 5700 5698 5697 5696 5696 5694 5692 5691 5689 5689 5689 5688 5687 5687 5686
5719 5726 5724 5718 5713 5710 5699 5709 5705 5698 5685 5676 5684 5668 5681 5687 5689 5692 5693 5694 5694 5696 5697 5696 5697 5697 5697 5696 5696 5696 5694 5693 5693 5693 5691 5689 5686 5683 5684 5684 5684 5684 5684 5683
5717 5722 5717 5712 5713 5712 5705 5709 5701 5694 5681 5672 5673 5665 5670 5681 5681 5685 5690 5692 5693 5694 5695 5694 5694 5693 5693 5692 5693 5692 5691 5690 5690 5689 5688 5686 5683 5682 5681 5681 5680 5680 5681 5680
5720 5726 5723 5719 5719 5715 5708 5699 5690 5678 5670 5660 5666 5662 5664 5672 5680 5685 5688 5691 5692 5692 5692 5692 5691 5690 5688 5689 5689 5688 5687 5687 5687 5686 5686 5684 5681 5680 5678 5677 5676 5675 5676 5676
5707 5715 5721 5722 5710 5706 5698 5678 5661 5658 5650 5653 5666 5662 5665 5680 5686 5686 5686 5686 5688 5688 5688 5687 5687 5686 5685 5685 5685 5685 5684 5683 5683 5683 5682 5681 5679 5678 5676 5674 5673 5672 5672 5671
5691 5692 5710 5715 5708 5697 5689 5680 5658 5649 5645 5650 5661 5659 5670 5685 5688 5688 5686 5685 5684 5684 5684 5684 5684 5683 5682 5682 5682 5681 5681 5681 5681 5680 5679 5679 5678 5676 5674 5672 5670 5669 5669 5669
5689 5691 5713 5716 5714 5703 5686 5675 5674 5656 5652 5648 5654 5665 5677 5684 5683 5683 5682 5681 5681 5681 5682 5682 5681 5680 5679 5679 5679 5679 5678 5678 5678 5678 5677 5677 5676 5675 5673 5671 5668 5667 5667 5667
5700 5690 5702 5710 5710 5702 5693 5678 5663 5654 5645 5644 5654 5659 5662 5674 5676 5678 5678 5678 5678 5678 5679 5679 5679 5678 5678 5678 5678 5677 5677 5676 5676 5676 5675 5675 5674 5673 5671 5669 5667 5666 5665 5664
5701 5687 5690 5697 5692 5687 5684 5676 5663 5652 5651 5643 5642 5655 5678 5677 5679 5678 5678 5678 5677 5677 5678 5677 5677 5677 5677 5676 5676 5676 5675 5675 5674 5674 5674 5673 5672 5670 5669 5668 5666 5664 5663 5662
5694 5681 5675 5686 5697 5698 5690 5680 5667 5658 5653 5646 5643 5655 5685 5682 5682 5680 5679 5679 5678 5678 5677 5677 5676 5676 5675 5675 5675 5674 5673 5673 5673 5672 5672 5671 5670 5668 5667 5666 5664 5662 5660 5659
5692 5677 5665 5670 5678 5686 5684 5680 5672 5662 5650 5643 5643 5659 5683 5681 5681 5680 5679 5679 5678 5677 5677 5676 5675 5674 5674 5673 5673 5672 5672 5672 5671 5670 5669 5668 5667 5665 5664 5663 5662 5660 5658 5657
5694 5674 5666 5662 5666 5675 5677 5679 5673 5665 5652 5649 5654 5664 5676 5677 5678 5678 5678 5678 5677 5677 5676 5674 5673 5673 5672 5672 5671 5671 5670 5670 5669 5668 5666 5665 5664 5663 5662 5661 5659 5658 5656 5654
5689 5674 5675 5676 5681 5681 5679 5679 5677 5670 5666 5660 5664 5667 5674 5678 5679 5679 5679 5678 5677 5676 5674 5674 5673 5672 5671 5671 5670 5669 5669 5668 5667 5665 5664 5663 5662 5661 5660 5659 5657 5656 5654 5653
5681 5674 5675 5676 5682 5682 5677 5680 5679 5676 5674 5670 5670 5671 5681 5682 5681 5679 5679 5677 5676 5675 5675 5674 5674 5672 5671 5670 5669 5668 5667 5666 5665 5663 5662 5662 5660 5659 5658 5657 5655 5654 5652 5650
5674 5671 5666 5664 5673 5677 5668 5677 5678 5677 5677 5674 5670 5674 5681 5679 5679 5679 5679 5678 5677 5677 5676 5675 5674 5673 5671 5670 5669 5667 5666 5665 5663 5662 5661 5660 5658 5657 5656 5655 5653 5650 5648 5647
5672 5665 5656 5657 5664 5656 5670 5686 5684 5679 5678 5678 5679 5680 5680 5680 5681 5681 5681 5679 5678 5678 5676 5675 5675 5674 5672 5670 5669 5667 5666 5664 5662 5660 5659 5658 5657 5655 5653 5651 5649 5647 5645 5643
5675 5666 5655 5649 5651 5657 5673 5683 5682 5677 5676 5682 5679 5680 5679 5679 5679 5679 5681 5681 5681 5680 5678 5677 5675 5674 5672 5670 5668 5666 5664 5662 5660 5658 5657 5656 5655 5653 5651 5648 5646 5644 5641 5639
5671 5666 5656 5649 5650 5649 5668 5685 5689 5682 5671 5682 5681 5678 5676 5675 5668 5673 5682 5682 5681 5680 5678 5676 5675 5673 5670 5668 5667 5664 5662 5660 5658 5657 5656 5654 5653 5651 5648 5645 5643 5641 5639 5637
5662 5657 5651 5647 5647 5655 5675 5683 5685 5665 5666 5683 5681 5678 5675 5672 5673 5678 5681 5680 5680 5679 5677 5675 5673 5670 5669 5667 5665 5662 5660 5658 5657 5656 5654 5652 5650 5648 5646 5643 5641 5638 5636 5634
5654 5650 5647 5643 5643 5652 5677 5677 5670 5668 5677 5679 5679 5678 5676 5675 5677 5677 5678 5678 5677 5676 5675 5673 5670 5668 5667 5665 5663 5660 5658 5658 5656 5654 5652 5650 5647 5646 5644 5640 5638 5636 5633 5631
5653 5652 5650 5649 5653 5666 5671 5673 5676 5675 5674 5676 5676 5677 5676 5675 5674 5675 5675 5675 5675 5674 5672 5671 5668 5666 5665 5663 5662 5659 5658 5656 5654 5652 5649 5647 5645 5643 5641 5638 5636 5633 5631 5629
5655 5655 5650 5650 5659 5666 5669 5672 5674 5674 5674 5675 5676 5676 5675 5673 5674 5673 5673 5672 5672 5671 5669 5668 5666 5664 5663 5662 5661 5659 5658 5655 5652 5649 5646 5644 5642 5640 5638 5635 5633 5631 5628 5626
5650 5650 5647 5648 5657 5662 5668 5669 5670 5671 5673 5673 5674 5674 5674 5673 5672 5671 5670 5669 5669 5668 5667 5665 5664 5663 5662 5661 5659 5658 5656 5653 5650 5647 5644 5641 5639 5637 5634 5632 5630 5629 5627 5625
5644 5642 5641 5644 5653 5651 5658 5665 5667 5666 5667 5669 5669 5669 5671 5671 5670 5670 5668 5668 5666 5665 5664 5663 5662 5661 5661 5659 5658 5657 5655 5652 5648 5644 5641 5639 5637 5634 5632 5630 5628 5627 5625 5623